User: anonymous   Login
Location: Starry Hill Observatory
(46.8582°N, 122.3590°W)
Time: 20:20:58
(UTC-07:00)
Language:

Cosmos 1300 Rocket - Orbit

View from above orbital plane
View from above orbital plane
View from above satellite
View from above satellite

Ground track
Ground track

The orbit data is extracted from the following two-line orbital elements,

1 12786U 81082B   17086.92100191 +.00000110 +00000-0 +10106-4 0  9992
2 12786 082.4897 044.2927 0018070 158.4880 201.7099 14.84672732901655
Epoch (UTC): 27 March 2017 22:06:14
Eccentricity: 0.0018070
inclination: 82.4897°
perigee height: 602 km
apogee height: 627 km
right ascension of ascending node: 44.2927°
argument of perigee: 158.4880°
revolutions per day: 14.84672732
mean anomaly at epoch: 201.7099°
orbit number at epoch: 90165

The dashed part of the orbit path shows where the satellite is in the earth's shadow,  

DLR